Location: PACMO
(41.3967°N, 90.3760°W)
Time: 18:26:08
(UTC-06:00)

Amateur Radio Satellites - All Passes

Search period start: 12 February 2016 17:56
Search period end: 13 February 2016 17:56
Location: PACMO, 41.3967°N, 90.3760°W

Satellite Date Start Highest point End Downlink Frequencies (MHz)
Time Altitude Azimuth
RS-15 12 Feb 18:02:34 18:13:24 36° 34° (NE) 18:24:26 29.354- 29.394
Cubesat XI-IV 12 Feb 18:06:17 18:11:21 44° 261° (W) 18:16:28 437.490
LilacSat-2 12 Feb 18:12:39 18:16:04 31° 263° (W) 18:19:29 437.200
BEESAT 3 12 Feb 18:17:44 18:18:26 10° 323° (NW) 18:19:07 437.485
O/OREOS (USA 219) 12 Feb 18:18:15 18:21:35 20° 259° (W) 18:24:56 437.305
GOMX 1 12 Feb 18:20:48 18:26:10 76° 76° (ENE) 18:31:17 467.674
CINEMA 3 12 Feb 18:21:46 18:23:57 14° 64° (ENE) 18:26:07 145.822/145.860
CANX-2 12 Feb 18:29:08 18:32:11 20° 66° (ENE) 18:35:15 2200.000
Cosmos 2499 12 Feb 18:37:39 18:41:15 13° 56° (NE) 18:44:44 435.465 / 435.565
HO-68 12 Feb 18:48:54 18:55:45 51° 67° (ENE) 19:02:40 435.675
CUBESAT XI-V 12 Feb 18:57:39 19:01:08 21° 295° (WNW) 19:04:36 437.345
COMPASS 1 12 Feb 19:00:00 19:03:07 21° 67° (ENE) 19:06:15 437.405
AO-85 12 Feb 19:05:44 19:10:33 43° 245° (WSW) 19:14:57 145.980
ISS 12 Feb 19:07:31 19:09:48 17° 14° (NNE) 19:12:04 145.825
PRISM 12 Feb 19:09:18 19:12:14 18° 93° (E) 19:15:09 437.425
BRITE-PL 12 Feb 19:10:17 19:14:43 23° 267° (W) 19:19:04 437.365/2234.400
STRAND 1 12 Feb 19:14:36 19:19:47 74° 103° (ESE) 19:24:56 437.568
CUTE 1.7 + AOD 2 12 Feb 19:17:55 19:22:02 59° 74° (ENE) 19:26:12 437.475
SEEDS 12 Feb 19:18:51 19:22:49 45° 73° (ENE) 19:26:51 437.485
GONETS M04 12 Feb 19:23:30 19:32:14 62° 78° (ENE) 19:40:57
Oscar 11 12 Feb 19:24:17 19:26:35 14° 64° (ENE) 19:28:53 145.826/435.025
DOVE 4 12 Feb 19:24:41 19:29:34 48° 261° (W) 19:34:12 437.250
AAUSAT CUBESAT 2 12 Feb 19:24:57 19:28:37 31° 70° (ENE) 19:32:19 437.432
AIST 2 12 Feb 19:26:26 19:29:45 23° 314° (NW) 19:33:05 435.215
PCSat 12 Feb 19:27:51 19:33:19 81° 242° (WSW) 19:38:43 145.827
UWE-3 12 Feb 19:37:05 19:40:14 21° 67° (ENE) 19:43:20 435.000/436.395/437.385
CUBEBUG 2 12 Feb 19:42:19 19:46:07 32° 71° (ENE) 19:49:52 437.445
CINEMA 3 12 Feb 19:56:07 20:00:40 61° 260° (W) 20:05:01 145.822/145.860
AIST 1 12 Feb 19:59:08 20:00:15 11° 67° (ENE) 20:01:23
GOMX 1 12 Feb 20:02:09 20:04:40 13° 270° (W) 20:07:08 467.674
CANX-2 12 Feb 20:03:56 20:07:48 35° 263° (W) 20:11:43 2200.000
DELFI C3 12 Feb 20:14:14 20:17:28 24° 69° (ENE) 20:20:43 145.870
RS-15 12 Feb 20:15:14 20:27:28 86° 240° (WSW) 20:39:49 29.354- 29.394
HUMSAT D 12 Feb 20:17:06 20:18:24 11° 63° (ENE) 20:19:42 437.325/437.525
ZACube-1 12 Feb 20:22:53 20:26:52 45° 73° (ENE) 20:30:51 437.345
Cosmos 2499 12 Feb 20:27:56 20:36:17 69° 80° (E) 20:43:54 435.465 / 435.565
FUNcube-1 12 Feb 20:30:10 20:34:13 52° 74° (ENE) 20:38:15 145.935
COMPASS 1 12 Feb 20:34:45 20:38:29 32° 263° (W) 20:42:16 437.405
HO-68 12 Feb 20:37:29 20:43:41 31° 265° (W) 20:49:56 435.675
ISS 12 Feb 20:43:30 20:46:43 65° 32° (NNE) 20:49:56 145.825
PRISM 12 Feb 20:43:51 20:47:41 36° 290° (WNW) 20:51:30 437.425
STRAND 1 12 Feb 20:55:29 20:58:20 15° 300° (WNW) 21:01:11 437.568
SEEDS 12 Feb 20:56:23 20:58:47 15° 269° (W) 21:01:12 437.485
CUTE 1.7 + AOD 2 12 Feb 20:56:51 20:58:16 11° 270° (W) 20:59:42 437.475
Oscar 11 12 Feb 20:58:03 21:02:15 54° 260° (W) 21:06:29 145.826/435.025
AAUSAT CUBESAT 2 12 Feb 21:01:03 21:04:10 21° 266° (W) 21:07:20 437.432
UWE-3 12 Feb 21:12:41 21:16:31 33° 263° (W) 21:20:18 435.000/436.395/437.385
DX 1 12 Feb 21:17:24 21:19:19 13° 62° (ENE) 21:21:15 434.975-435.025
CUBEBUG 2 12 Feb 21:19:33 21:22:49 21° 266° (W) 21:26:02 437.445
GONETS M04 12 Feb 21:21:15 21:28:25 29° 278° (W) 21:35:35
50 SAT 12 Feb 21:24:21 21:26:06 13° 65° (ENE) 21:27:52 437.505
AIST 1 12 Feb 21:34:03 21:38:22 66° 265° (W) 21:42:37
ESTCUBE 1 12 Feb 21:37:45 21:41:13 22° 66° (ENE) 21:44:41 437.505/2401.250
ANTELSAT 12 Feb 21:42:24 21:45:52 23° 95° (E) 21:49:24 437.575/2403.000
TIGRISAT 12 Feb 21:48:01 21:51:38 25° 95° (E) 21:55:17 435.000
DELFI C3 12 Feb 21:48:59 21:52:18 25° 265° (W) 21:55:38 145.870
HUMSAT D 12 Feb 21:49:28 21:53:30 63° 259° (WSW) 21:57:34 437.325/437.525
ZACube-1 12 Feb 22:01:04 22:03:25 15° 268° (W) 22:05:44 437.345
FUNcube-1 12 Feb 22:08:58 22:10:47 13° 269° (W) 22:12:37 145.935
QB50P2 12 Feb 22:10:51 22:11:21 10° 90° (E) 22:11:51 145.880/145.840
VELOX 1 12 Feb 22:20:52 22:25:13 53° 73° (ENE) 22:29:35 145.980
ISS 12 Feb 22:21:01 22:22:48 14° 229° (SW) 22:24:36 145.825
Cosmos 2499 12 Feb 22:22:24 22:28:29 23° 280° (W) 22:34:15 435.465 / 435.565
RS-15 12 Feb 22:29:42 22:38:14 23° 261° (W) 22:46:49 29.354- 29.394
UKube-1 12 Feb 22:32:40 22:36:58 67° 74° (ENE) 22:41:17 .
UNISAT 6 12 Feb 22:33:21 22:37:44 83° 102° (ESE) 22:42:12 437.425
SPROUT 12 Feb 22:37:16 22:40:41 24° 68° (ENE) 22:44:06 437.525
POPSAT HIP 1 12 Feb 22:37:22 22:40:32 20° 94° (E) 22:43:40 437.405
AISAT 12 Feb 22:38:02 22:42:30 86° 77° (ENE) 22:46:59 437.250
DUCHIFAT 1 12 Feb 22:39:55 22:43:02 20° 94° (E) 22:46:08 145.980
NANOSAT C BR1 12 Feb 22:39:55 22:43:08 21° 94° (E) 22:46:20 145.865
CUBEBUG 1 12 Feb 22:48:06 22:52:32 88° 76° (ENE) 22:56:59 437.445
QB50P1 12 Feb 22:49:19 22:52:57 28° 96° (E) 22:56:34 145.935-145.965
DX 1 12 Feb 22:50:37 22:54:58 66° 258° (WSW) 22:59:20 434.975-435.025
50 SAT 12 Feb 22:56:12 22:59:44 43° 261° (W) 23:03:19 437.505
PHONESAT 2.4 12 Feb 23:06:32 23:09:06 21° 154° (SSE) 23:11:43 2401.200-2431.200
ESTCUBE 1 12 Feb 23:13:36 23:17:47 37° 262° (W) 23:22:02 437.505/2401.250
ANTELSAT 12 Feb 23:18:44 23:22:37 32° 290° (WNW) 23:26:35 437.575/2403.000
TIGRISAT 12 Feb 23:24:32 23:28:19 30° 291° (WNW) 23:32:08 435.000
BUGSAT 1 12 Feb 23:26:51 23:30:33 34° 98° (E) 23:34:11 437.445
POLYITAN 1 12 Feb 23:42:55 23:47:07 69° 284° (WNW) 23:51:17 437.675
QB50P2 12 Feb 23:43:24 23:47:36 66° 286° (WNW) 23:51:46 145.880/145.840
CUSAT 1 12 Feb 23:43:37 23:48:54 19° 82° (E) 23:54:06 437.405
BEESAT 2 12 Feb 23:48:02 23:49:28 12° 39° (NE) 23:50:54 435.950
VELOX 1 12 Feb 23:59:35 00:02:00 14° 268° (W) 00:04:26 145.980
TISAT 1 13 Feb 00:08:08 00:12:22 88° 77° (ENE) 00:16:36 437.305
SWISSCUBE 13 Feb 00:09:09 00:12:36 20° 64° (ENE) 00:16:04 437.505
UKube-1 13 Feb 00:12:22 00:13:28 11° 270° (W) 00:14:33 .
POPSAT HIP 1 13 Feb 00:12:37 00:16:23 33° 290° (WNW) 00:20:09 437.405
SPROUT 13 Feb 00:12:43 00:16:30 30° 263° (W) 00:20:19 437.525
UNISAT 6 13 Feb 00:13:32 00:13:49 10° 299° (WNW) 00:14:06 437.425
DUCHIFAT 1 13 Feb 00:15:03 00:18:49 33° 290° (WNW) 00:22:34 145.980
Cosmos 2491 13 Feb 00:15:11 00:21:24 21° 63° (ENE) 00:27:35 435.465 / 435.565
NANOSAT C BR1 13 Feb 00:15:12 00:18:55 31° 290° (WNW) 00:22:38 145.865
QB50P1 13 Feb 00:25:13 00:28:38 24° 292° (WNW) 00:32:02 145.935-145.965
PHONESAT 2.4 13 Feb 00:42:48 00:46:03 62° 169° (S) 00:49:18 2401.200-2431.200
DANDE 13 Feb 00:43:08 00:49:59 33° 85° (E) 00:57:11 436.750
ITUPSAT 1 13 Feb 00:46:35 00:51:03 41° 70° (ENE) 00:55:32 437.325
BEESAT 13 Feb 00:52:39 00:57:13 48° 71° (ENE) 01:01:48 436.000
BEESAT 3 13 Feb 00:53:33 00:57:31 63° 55° (NE) 01:01:24 437.485
BUGSAT 1 13 Feb 01:02:52 01:05:42 19° 294° (WNW) 01:08:31 437.445
YUBILEINY 13 Feb 01:06:51 01:11:39 16° 76° (ENE) 01:16:27 435.215
Oscar 19 13 Feb 01:08:32 01:13:28 46° 99° (E) 01:18:22 437.125/150
JAS-2 13 Feb 01:15:15 01:20:19 36° 96° (E) 01:25:06 435.910
CUSAT 1 13 Feb 01:22:09 01:30:16 89° 99° (E) 01:38:11 437.405
BEESAT 2 13 Feb 01:23:59 01:28:00 86° 62° (ENE) 01:31:58 435.950
KKS-1 13 Feb 01:38:11 01:41:23 20° 65° (ENE) 01:44:35 437.445
SWISSCUBE 13 Feb 01:45:30 01:50:04 45° 261° (W) 01:54:41 437.505
MOZHAYETS 4 13 Feb 01:58:07 02:00:07 13° 62° (ENE) 02:02:07
Gurwin Techsat 1B 13 Feb 02:07:02 02:12:19 62° 101° (ESE) 02:17:34 435.225
AIST 2 13 Feb 02:08:37 02:12:14 28° 49° (NE) 02:15:49 435.215
Cosmos 2491 13 Feb 02:10:35 02:19:23 85° 264° (W) 02:28:11 435.465 / 435.565
AO-7 13 Feb 02:11:01 02:14:44 13° 88° (E) 02:18:25 29.400- 29.500
PHONESAT 2.4 13 Feb 02:19:58 02:23:14 72° 186° (S) 02:26:30 2401.200-2431.200
DANDE 13 Feb 02:24:34 02:32:28 60° 284° (WNW) 02:40:52 436.750
ITAMSAT 1 13 Feb 02:24:54 02:29:58 46° 100° (E) 02:34:58 435.822/435.867
ITUPSAT 1 13 Feb 02:25:25 02:29:02 21° 266° (W) 02:32:40 437.325
BEESAT 13 Feb 02:32:01 02:35:15 18° 268° (W) 02:38:30 436.000
BEESAT 3 13 Feb 02:33:38 02:34:42 11° 252° (WSW) 02:35:47 437.485
SO-50 13 Feb 02:40:22 02:42:25 13° 107° (ESE) 02:44:28 436.795
STARS 13 Feb 02:46:50 02:51:08 55° 73° (ENE) 02:55:26 437.465
Oscar 19 13 Feb 02:48:34 02:52:29 22° 296° (WNW) 02:56:22 437.125/150
YUBILEINY 13 Feb 02:58:12 03:06:58 84° 96° (E) 03:15:52 435.215
JAS-2 13 Feb 03:00:39 03:05:16 27° 296° (WNW) 03:09:37 435.910
CUSAT 1 13 Feb 03:07:34 03:13:25 21° 296° (WNW) 03:19:06 437.405
KKS-1 13 Feb 03:13:28 03:17:40 40° 261° (W) 03:21:54 437.445
MOZHAYETS 4 13 Feb 03:32:08 03:36:41 70° 258° (WSW) 03:41:17
M-CUBED/EXP-1 PRIME 13 Feb 03:34:17 03:36:07 14° 100° (E) 03:38:02 437.505
AUBIESAT-1 13 Feb 03:40:52 03:42:44 14° 99° (E) 03:44:41 437.475
AIST 2 13 Feb 03:47:06 03:50:41 29° 246° (WSW) 03:54:13 435.215
Gurwin Techsat 1B 13 Feb 03:48:12 03:51:45 18° 298° (WNW) 03:55:18 435.225
PHONESAT 2.4 13 Feb 03:57:20 04:00:16 30° 202° (SSW) 04:03:11 2401.200-2431.200
AO-7 13 Feb 04:00:26 04:08:49 75° 106° (ESE) 04:17:05 29.400- 29.500
ITAMSAT 1 13 Feb 04:05:03 04:09:06 23° 296° (WNW) 04:13:09 435.822/435.867
Cosmos 2491 13 Feb 04:09:56 04:14:50 16° 284° (WNW) 04:19:44 435.465 / 435.565
Cosmos 2504 13 Feb 04:12:44 04:21:08 58° 91° (E) 04:29:47 435.465 / 435.565
DANDE 13 Feb 04:13:14 04:17:13 14° 304° (NW) 04:21:14 436.750
SO-50 13 Feb 04:17:19 04:22:13 81° 305° (NW) 04:27:12 436.795
CUBESAT XI-V 13 Feb 04:22:45 04:27:09 41° 71° (ENE) 04:31:34 437.345
STARS 13 Feb 04:25:41 04:27:50 13° 269° (W) 04:30:00 437.465
HORYU 2 13 Feb 04:31:20 04:35:48 74° 103° (ESE) 04:40:15 437.375
STRAND 1 13 Feb 04:54:34 04:57:07 14° 60° (ENE) 04:59:42 437.568
YUBILEINY 13 Feb 04:58:33 05:04:54 22° 297° (WNW) 05:11:20 435.215
M-CUBED/EXP-1 PRIME 13 Feb 05:07:41 05:10:52 36° 293° (WNW) 05:14:15 437.505
AUBIESAT-1 13 Feb 05:14:10 05:17:26 37° 292° (WNW) 05:20:51 437.475
BRITE-PL 13 Feb 05:38:02 05:40:03 13° 88° (E) 05:42:02 437.365/2234.400
LilacSat-2 13 Feb 05:46:01 05:49:11 25° 96° (E) 05:52:20 437.200
AO-7 13 Feb 05:54:15 06:00:49 27° 306° (NW) 06:07:21 29.400- 29.500
PRISM 13 Feb 05:59:43 06:02:05 15° 64° (ENE) 06:04:27 437.425
SO-50 13 Feb 06:00:36 06:03:31 15° 323° (NW) 06:06:25 436.795
CUBESAT XI-V 13 Feb 06:01:11 06:04:41 21° 267° (W) 06:08:12 437.345
Cosmos 2504 13 Feb 06:07:20 06:14:57 33° 291° (WNW) 06:22:47 435.465 / 435.565
CUTE-I 13 Feb 06:08:11 06:13:28 54° 100° (E) 06:18:43 437.470
HORYU 2 13 Feb 06:10:11 06:11:45 12° 299° (WNW) 06:13:19 437.375
Cubesat XI-IV 13 Feb 06:23:02 06:28:26 74° 103° (ESE) 06:33:49 437.490
GOMX 1 13 Feb 06:24:09 06:27:12 19° 92° (E) 06:30:10 467.674
STRAND 1 13 Feb 06:30:31 06:35:37 79° 257° (WSW) 06:40:47 437.568
GONETS M04 13 Feb 06:34:49 06:37:45 12° 73° (ENE) 06:40:42
O/OREOS (USA 219) 13 Feb 06:50:25 06:54:40 45° 107° (ESE) 06:58:59 437.305
CUTE 1.7 + AOD 2 13 Feb 07:05:46 07:06:22 10° 89° (E) 07:06:58 437.475
BRITE-PL 13 Feb 07:14:31 07:19:05 57° 287° (WNW) 07:23:19 437.365/2234.400
LilacSat-2 13 Feb 07:20:27 07:23:23 22° 291° (WNW) 07:26:20 437.200
DOVE 4 13 Feb 07:23:47 07:27:46 41° 98° (E) 07:31:41 437.250
PRISM 13 Feb 07:32:57 07:36:59 49° 260° (W) 07:41:05 437.425
CANX-2 13 Feb 07:48:36 07:52:36 37° 98° (E) 07:56:35 2200.000
CUTE-I 13 Feb 07:49:10 07:53:07 21° 297° (WNW) 07:57:02 437.470
CINEMA 3 13 Feb 07:50:58 07:54:33 27° 96° (E) 07:58:10 145.822/145.860
GOMX 1 13 Feb 08:01:31 08:05:29 35° 290° (WNW) 08:09:17 467.674
HO-68 13 Feb 08:03:45 08:10:46 53° 101° (E) 08:17:44 435.675
Cubesat XI-IV 13 Feb 08:04:43 08:07:52 16° 300° (WNW) 08:11:02 437.490
COMPASS 1 13 Feb 08:17:15 08:21:12 37° 98° (E) 08:25:07 437.405
GONETS M04 13 Feb 08:24:13 08:32:49 70° 93° (E) 08:41:28
PCSat 13 Feb 08:29:58 08:32:03 12° 102° (ESE) 08:34:07 145.827
O/OREOS (USA 219) 13 Feb 08:31:05 08:34:19 19° 305° (NW) 08:37:35 437.305
RS-15 13 Feb 08:35:52 08:39:14 12° 93° (E) 08:42:38 29.354- 29.394
SEEDS 13 Feb 08:38:01 08:42:18 89° 105° (ESE) 08:46:34 437.485
CUTE 1.7 + AOD 2 13 Feb 08:38:23 08:42:39 68° 285° (WNW) 08:46:55 437.475
ANTELSAT 13 Feb 08:41:55 08:45:04 20° 67° (ENE) 08:48:13 437.575/2403.000
AAUSAT CUBESAT 2 13 Feb 08:42:06 08:46:16 59° 100° (E) 08:50:25 437.432
Oscar 11 13 Feb 08:45:27 08:49:08 26° 95° (E) 08:52:48 145.826/435.025
TIGRISAT 13 Feb 08:47:18 08:50:36 22° 67° (ENE) 08:53:53 435.000
UWE-3 13 Feb 09:01:30 09:05:34 43° 99° (E) 09:09:41 435.000/436.395/437.385
DOVE 4 13 Feb 09:02:33 09:05:09 16° 295° (WNW) 09:07:44 437.250
Cosmos 2499 13 Feb 09:02:36 09:11:05 57° 91° (E) 09:19:43 435.465 / 435.565
CUBEBUG 2 13 Feb 09:08:43 09:12:56 75° 103° (ESE) 09:17:15 437.445
AO-85 13 Feb 09:18:34 09:23:51 67° 119° (ESE) 09:29:20 145.980
CANX-2 13 Feb 09:25:05 09:28:12 20° 293° (WNW) 09:31:20 2200.000
DELFI C3 13 Feb 09:26:14 09:30:03 39° 98° (E) 09:33:50 145.870
CINEMA 3 13 Feb 09:28:16 09:31:37 24° 292° (WNW) 09:34:58 145.822/145.860
POPSAT HIP 1 13 Feb 09:30:39 09:33:20 17° 65° (ENE) 09:36:01 437.405
UNISAT 6 13 Feb 09:32:13 09:36:30 72° 75° (ENE) 09:40:46 437.425
DUCHIFAT 1 13 Feb 09:32:40 09:35:17 16° 65° (ENE) 09:37:54 145.980
NANOSAT C BR1 13 Feb 09:32:50 09:35:35 17° 65° (ENE) 09:38:19 145.865
HUMSAT D 13 Feb 09:33:29 09:36:35 20° 94° (E) 09:39:43 437.325/437.525
QB50P1 13 Feb 09:42:14 09:45:31 22° 67° (ENE) 09:48:47 145.935-145.965
ZACube-1 13 Feb 09:46:47 09:51:02 82° 286° (WNW) 09:55:22 437.345
HO-68 13 Feb 09:51:59 09:58:09 32° 299° (WNW) 10:04:18 435.675
COMPASS 1 13 Feb 09:53:30 09:56:30 19° 294° (WNW) 09:59:30 437.405
FUNcube-1 13 Feb 09:53:50 09:58:04 72° 284° (WNW) 10:02:22 145.935
AIST 1 13 Feb 10:02:54 10:07:17 72° 95° (E) 10:11:41
PCSat 13 Feb 10:09:12 10:14:37 87° 296° (WNW) 10:20:06 145.827
BUGSAT 1 13 Feb 10:16:50 10:20:17 25° 68° (ENE) 10:23:43 437.445
ANTELSAT 13 Feb 10:17:39 10:21:35 35° 262° (W) 10:25:30 437.575/2403.000
AAUSAT CUBESAT 2 13 Feb 10:19:23 10:21:16 13° 297° (WNW) 10:23:10 437.432
Oscar 11 13 Feb 10:21:30 10:25:13 28° 291° (WNW) 10:28:55 145.826/435.025
UKube-1 13 Feb 10:22:32 10:23:30 11° 90° (E) 10:24:29 .
TIGRISAT 13 Feb 10:23:17 10:27:07 32° 263° (W) 10:30:58 435.000
GONETS M04 13 Feb 10:23:30 10:30:25 26° 294° (WNW) 10:37:24
50 SAT 13 Feb 10:28:20 10:30:50 17° 93° (E) 10:33:19 437.505
AISAT 13 Feb 10:29:34 10:32:18 16° 92° (E) 10:35:00 437.250
POLYITAN 1 13 Feb 10:35:19 10:39:32 87° 82° (E) 10:43:46 437.675
QB50P2 13 Feb 10:35:45 10:39:59 89° 257° (WSW) 10:44:15 145.880/145.840
CUBEBUG 1 13 Feb 10:38:00 10:40:41 16° 92° (E) 10:43:21 437.445
RS-15 13 Feb 10:38:05 10:48:55 64° 114° (ESE) 11:00:22 29.354- 29.394
UWE-3 13 Feb 10:39:00 10:41:43 17° 294° (WNW) 10:44:28 435.000/436.395/437.385
DX 1 13 Feb 10:39:30 10:42:47 21° 94° (E) 10:46:01 434.975-435.025
CUBEBUG 2 13 Feb 10:48:19 10:49:00 10° 298° (WNW) 10:49:40 437.445
Cosmos 2499 13 Feb 10:56:52 11:04:37 34° 290° (WNW) 11:12:29 435.465 / 435.565
AO-85 13 Feb 11:00:33 11:04:54 24° 318° (NW) 11:09:18 145.980
DELFI C3 13 Feb 11:02:00 11:04:39 17° 294° (WNW) 11:07:18 145.870
POPSAT HIP 1 13 Feb 11:04:45 11:08:48 44° 261° (W) 11:12:51 437.405
ESTCUBE 1 13 Feb 11:05:42 11:10:04 44° 98° (E) 11:14:23 437.505/2401.250
DUCHIFAT 1 13 Feb 11:06:37 11:10:39 44° 261° (W) 11:14:41 145.980
NANOSAT C BR1 13 Feb 11:07:00 11:11:00 42° 261° (W) 11:15:01 145.865
HUMSAT D 13 Feb 11:08:31 11:12:18 34° 289° (WNW) 11:16:07 437.325/437.525
SO-50 13 Feb 11:09:40 11:12:38 16° 38° (NE) 11:15:33 436.795
QB50P1 13 Feb 11:17:21 11:21:08 31° 263° (W) 11:24:55 145.935-145.965
DANDE 13 Feb 11:25:41 11:30:21 20° 60° (ENE) 11:34:15 436.750
JAS-2 13 Feb 11:27:11 11:32:38 23° 62° (ENE) 11:37:41 435.910
AIST 1 13 Feb 11:44:40 11:45:25 10° 293° (WNW) 11:46:10
VELOX 1 13 Feb 11:47:14 11:51:40 76° 285° (WNW) 11:56:03 145.980
Gurwin Techsat 1B 13 Feb 11:51:45 11:54:16 14° 59° (ENE) 11:56:48 435.225
BUGSAT 1 13 Feb 11:52:03 11:55:35 26° 264° (W) 11:59:07 437.445
TISAT 1 13 Feb 11:53:49 11:55:51 13° 91° (E) 11:57:52 437.305
PCSat 13 Feb 11:55:28 11:58:50 16° 319° (NW) 12:02:13 145.827
UKube-1 13 Feb 11:55:42 12:00:01 67° 286° (WNW) 12:04:16 .
SPROUT 13 Feb 11:58:16 12:02:20 43° 99° (E) 12:06:23 437.525
CUSAT 1 13 Feb 12:01:25 12:06:50 61° 76° (ENE) 12:10:51 437.405
50 SAT 13 Feb 12:01:30 12:04:56 33° 289° (WNW) 12:08:23 437.505
AISAT 13 Feb 12:04:49 12:09:02 46° 288° (WNW) 12:13:13 437.250
CUBEBUG 1 13 Feb 12:13:04 12:17:14 45° 288° (WNW) 12:21:21 437.445
DX 1 13 Feb 12:15:06 12:19:04 35° 290° (WNW) 12:22:59 434.975-435.025
Oscar 19 13 Feb 12:25:16 12:30:24 68° 73° (ENE) 12:35:33 437.125/150
ESTCUBE 1 13 Feb 12:43:23 12:46:32 19° 295° (WNW) 12:49:42 437.505/2401.250
SO-50 13 Feb 12:49:00 12:53:51 89° 244° (WSW) 12:58:30 436.795
ITUPSAT 1 13 Feb 12:50:32 12:50:43 10° 89° (E) 12:50:53 437.325
RS-15 13 Feb 12:51:20 13:01:57 44° 319° (NW) 13:13:11 29.354- 29.394
BEESAT 13 Feb 12:54:47 12:56:36 12° 90° (E) 12:58:25 436.000
DANDE 13 Feb 13:07:43 13:14:13 61° 266° (W) 13:19:02 436.750
YUBILEINY 13 Feb 13:08:37 13:16:55 42° 73° (ENE) 13:25:06 435.215
AO-7 13 Feb 13:09:27 13:15:41 24° 53° (NE) 13:21:53 29.400- 29.500
JAS-2 13 Feb 13:09:31 13:17:07 74° 257° (WSW) 13:23:59 435.910
Cosmos 2491 13 Feb 13:17:55 13:24:11 23° 80° (E) 13:30:26 435.465 / 435.565
ISS 13 Feb 13:23:52 13:26:09 18° 132° (SE) 13:28:27 145.825
TISAT 1 13 Feb 13:27:46 13:31:49 50° 287° (WNW) 13:35:50 437.305
Gurwin Techsat 1B 13 Feb 13:28:10 13:33:28 85° 255° (WSW) 13:38:50 435.225
SPROUT 13 Feb 13:35:12 13:37:59 17° 295° (WNW) 13:40:45 437.525
ITAMSAT 1 13 Feb 13:42:50 13:48:00 71° 73° (ENE) 13:53:12 435.822/435.867
SWISSCUBE 13 Feb 13:45:26 13:50:02 44° 99° (E) 13:54:37 437.505
CUSAT 1 13 Feb 13:46:13 13:47:54 12° 283° (WNW) 13:49:27 437.405
Cosmos 2504 13 Feb 14:06:53 14:13:03 21° 63° (ENE) 14:18:55 435.465 / 435.565
Oscar 19 13 Feb 14:07:24 14:10:11 14° 270° (W) 14:12:59 437.125/150
M-CUBED/EXP-1 PRIME 13 Feb 14:21:40 14:24:08 18° 64° (ENE) 14:26:31 437.505
ITUPSAT 1 13 Feb 14:24:17 14:29:08 84° 285° (WNW) 14:33:57 437.325
AUBIESAT-1 13 Feb 14:27:50 14:30:14 18° 63° (ENE) 14:32:34 437.475
BEESAT 13 Feb 14:30:06 14:34:53 72° 286° (WNW) 14:39:39 436.000
BEESAT 3 13 Feb 14:48:18 14:48:46 10° 108° (ESE) 14:49:14 437.485
AO-7 13 Feb 14:59:06 15:07:30 84° 252° (WSW) 15:15:56 29.400- 29.500
ISS 13 Feb 14:59:09 15:02:20 51° 329° (NNW) 15:05:32 145.825
JAS-2 13 Feb 15:00:03 15:02:54 12° 272° (W) 15:05:41 435.910
KKS-1 13 Feb 15:04:12 15:08:18 36° 98° (E) 15:12:23 437.445
YUBILEINY 13 Feb 15:05:32 15:13:41 44° 273° (W) 15:21:48 435.215
RS-15 13 Feb 15:10:00 15:18:43 23° 353° (N) 15:27:44 29.354- 29.394
Cosmos 2491 13 Feb 15:11:21 15:20:03 75° 279° (W) 15:28:48 435.465 / 435.565
BEESAT 2 13 Feb 15:18:02 15:20:18 15° 110° (ESE) 15:22:33 435.950
O/OREOS (USA 219) 13 Feb 15:23:04 15:24:31 11° 50° (NE) 15:25:58 437.305
SWISSCUBE 13 Feb 15:23:59 15:27:31 21° 296° (WNW) 15:31:03 437.505
ITAMSAT 1 13 Feb 15:25:23 15:27:59 14° 270° (W) 15:30:35 435.822/435.867
MOZHAYETS 4 13 Feb 15:27:26 15:31:24 27° 95° (E) 15:35:20
HORYU 2 13 Feb 15:29:15 15:33:38 69° 74° (ENE) 15:38:02 437.375
CUTE-I 13 Feb 15:54:03 15:56:11 12° 58° (ENE) 15:58:20 437.470
M-CUBED/EXP-1 PRIME 13 Feb 15:55:39 15:58:40 25° 257° (WSW) 16:01:33 437.505
Cosmos 2504 13 Feb 15:59:00 16:07:35 82° 265° (W) 16:15:30 435.465 / 435.565
AUBIESAT-1 13 Feb 16:01:39 16:04:41 26° 257° (WSW) 16:07:36 437.475
ITUPSAT 1 13 Feb 16:05:42 16:06:10 10° 302° (WNW) 16:06:40 437.325
Cubesat XI-IV 13 Feb 16:07:46 16:11:03 17° 60° (ENE) 16:14:21 437.490
AO-85 13 Feb 16:12:04 16:14:21 13° 31° (NNE) 16:16:35 145.980
STARS 13 Feb 16:12:19 16:16:41 75° 285° (WNW) 16:21:03 437.465
BEESAT 3 13 Feb 16:21:58 16:25:56 69° 304° (WNW) 16:29:55 437.485
LilacSat-2 13 Feb 16:29:27 16:31:27 14° 66° (ENE) 16:33:26 437.200
ISS 13 Feb 16:37:12 16:39:20 16° 348° (NNW) 16:41:29 145.825
KKS-1 13 Feb 16:41:18 16:44:39 21° 294° (WNW) 16:47:59 437.445
BRITE-PL 13 Feb 16:47:12 16:51:21 22° 65° (ENE) 16:55:23 437.365/2234.400
BEESAT 2 13 Feb 16:53:52 16:57:46 50° 306° (NW) 17:01:43 435.950
AO-7 13 Feb 16:56:30 17:01:22 16° 271° (W) 17:06:16 29.400- 29.500
O/OREOS (USA 219) 13 Feb 17:00:01 17:04:38 89° 76° (ENE) 17:09:14 437.305
MOZHAYETS 4 13 Feb 17:04:29 17:08:32 30° 291° (WNW) 17:12:34
HORYU 2 13 Feb 17:09:35 17:10:39 11° 270° (W) 17:11:44 437.375
Cosmos 2491 13 Feb 17:13:55 17:18:33 15° 302° (WNW) 17:23:14 435.465 / 435.565
PCSat 13 Feb 17:15:12 17:18:10 14° 39° (NE) 17:21:06 145.827
RS-15 13 Feb 17:26:18 17:36:35 31° 28° (NNE) 17:47:04 29.354- 29.394
CUTE-I 13 Feb 17:30:05 17:35:24 87° 75° (ENE) 17:40:48 437.470
GOMX 1 13 Feb 17:31:17 17:35:40 27° 68° (ENE) 17:39:51 467.674
AIST 2 13 Feb 17:43:56 17:48:00 55° 119° (ESE) 17:52:06 435.215
Cubesat XI-IV 13 Feb 17:45:14 17:50:32 69° 258° (WSW) 17:55:53 437.490
